Weather History for Mount Sterling, KY

Change the Weather History Date:

Saturday, November 10, 2012

  Actual Average Record
Temperature  
Mean Temperature 58 °F -  
Max Temperature 71 °F 59 °F 53 °F (2013)
Min Temperature 46 °F 37 °F 30 °F (2013)
Degree Days  
Heating Degree Days 6    
Growing Degree Days 8 (Base 50)    
Moisture  
Dew Point 38 °F    
Average Humidity 46    
Maximum Humidity 62    
Minimum Humidity 31    
Precipitation  
Precipitation 0.00 in - - ()
Sea Level Pressure  
Sea Level Pressure 30.24 in    
Wind  
Wind Speed 8 mph ()    
Max Wind Speed 14 mph    
Max Gust Speed 18 mph    
Visibility 10.0 miles    
Events      
Averages and records for this station are not official NWS values.
T = Trace of Precipitation, MM = Missing Value Source: Averaged Metar Reports

Daily Weather History Graph

Daily Weather History Graph

Search for Another Location

Airport:

Trip Planner

Search our weather history database for the weather conditions in past years. The results will help you decide how hot, cold, wet, or windy it might be!

Date:

Astronomy

Nov. 10, 2012 Rise Set
Actual Time 7:11 AM EST 5:27 PM EST
Civil Twilight 6:44 AM EST 5:55 PM EST
Nautical Twilight 6:12 AM EST 6:26 PM EST
Astronomical Twilight 5:41 AM EST 6:57 PM EST
Moon 3:18 AM EST (11/10) 3:11 PM EST (11/10)
Length of Visible Light 11h 11m
Length of Day
10h 15m
Waning Crescent, 14% of the Moon is Illuminated
Nov 10
Waning Crescent
Nov 13
New
Nov 20
First Quarter
Nov 28
Full
Dec 6
Last Quarter

Hourly Weather History & Observations

Time (EST) Temp. Windchill Dew Point Humidity Pressure Visibility Wind Dir Wind Speed Gust Speed Precip Events Conditions
12:15 AM 50.0 °F - 33.8 °F 54% 30.19 in 10.0 mi SW 6.9 mph - N/A   Clear
12:35 AM 50.0 °F - 33.8 °F 54% 30.19 in 10.0 mi SW 8.1 mph - N/A   Clear
12:55 AM 50.0 °F - 33.8 °F 54% 30.19 in 10.0 mi SW 8.1 mph - N/A   Clear
5:15 AM 50.0 °F - 33.8 °F 54% 30.25 in 10.0 mi SW 8.1 mph - N/A   Clear
5:35 AM 50.0 °F - 33.8 °F 54% 30.25 in 10.0 mi SW 8.1 mph - N/A   Clear
5:55 AM 48.2 °F - 33.8 °F 58% 30.26 in 10.0 mi SW 6.9 mph - N/A   Clear
6:15 AM 48.2 °F - 33.8 °F 58% 30.26 in 10.0 mi SW 6.9 mph - N/A   Clear
6:35 AM 46.4 °F 43.5 °F 33.8 °F 62% 30.27 in 10.0 mi SW 5.8 mph - N/A   Clear
6:55 AM 46.4 °F 42.9 °F 33.8 °F 62% 30.27 in 10.0 mi SW 6.9 mph - N/A   Clear
7:35 AM 48.2 °F - 33.8 °F 58% 30.28 in 10.0 mi SW 9.2 mph - N/A   Clear
7:55 AM 50.0 °F - 33.8 °F 54% 30.29 in 10.0 mi SW 9.2 mph - N/A   Clear
8:15 AM 50.0 °F - 33.8 °F 54% 30.29 in 10.0 mi SW 8.1 mph - N/A   Clear
8:35 AM 51.8 °F - 35.6 °F 54% 30.30 in 10.0 mi SW 9.2 mph - N/A   Clear
8:55 AM 53.6 °F - 35.6 °F 51% 30.30 in 10.0 mi SW 9.2 mph - N/A   Clear
9:15 AM 55.4 °F - 35.6 °F 47% 30.29 in 10.0 mi SW 10.4 mph - N/A   Clear
9:55 AM 59.0 °F - 37.4 °F 45% 30.29 in 10.0 mi WSW 6.9 mph - N/A   Clear
10:15 AM 59.0 °F - 37.4 °F 45% 30.29 in 10.0 mi SW 10.4 mph - N/A   Clear
10:35 AM 59.0 °F - 39.2 °F 48% 30.28 in 10.0 mi WSW 10.4 mph 16.1 mph N/A   Clear
10:55 AM 60.8 °F - 41.0 °F 48% 30.28 in 10.0 mi SW 8.1 mph - N/A   Clear
11:15 AM 62.6 °F - 41.0 °F 45% 30.28 in 10.0 mi WSW 13.8 mph - N/A   Clear
11:35 AM 64.4 °F - 41.0 °F 42% 30.27 in 10.0 mi SW 10.4 mph 18.4 mph N/A   Clear
11:55 AM 64.4 °F - 42.8 °F 45% 30.26 in 10.0 mi SW 8.1 mph - N/A   Clear
12:15 PM 66.2 °F - 41.0 °F 40% 30.26 in 10.0 mi SW 12.7 mph - N/A   Clear
12:35 PM 68.0 °F - 42.8 °F 40% 30.25 in 10.0 mi SW 10.4 mph 16.1 mph N/A   Clear
12:55 PM 68.0 °F - 42.8 °F 40% 30.24 in 10.0 mi WSW 11.5 mph - N/A   Clear
1:15 PM 69.8 °F - 42.8 °F 38% 30.23 in 10.0 mi SW 9.2 mph - N/A   Clear
1:35 PM 69.8 °F - 41.0 °F 35% 30.23 in 10.0 mi WSW 12.7 mph 17.3 mph N/A   Clear
1:55 PM 69.8 °F - 39.2 °F 33% 30.22 in 10.0 mi WSW 9.2 mph 16.1 mph N/A   Clear
2:15 PM 69.8 °F - 41.0 °F 35% 30.22 in 10.0 mi WSW 12.7 mph - N/A   Clear
2:35 PM 71.6 °F - 41.0 °F 33% 30.21 in 10.0 mi WSW 9.2 mph - N/A   Clear
2:55 PM 69.8 °F - 39.2 °F 33% 30.20 in 10.0 mi WSW 10.4 mph - N/A   Clear
3:15 PM 71.6 °F - 39.2 °F 31% 30.20 in 10.0 mi SW 6.9 mph 17.3 mph N/A   Clear
3:35 PM 71.6 °F - 39.2 °F 31% 30.20 in 10.0 mi West 9.2 mph - N/A   Clear
3:55 PM 71.6 °F - 39.2 °F 31% 30.20 in 10.0 mi WSW 6.9 mph - N/A   Clear
4:15 PM 69.8 °F - 41.0 °F 35% 30.20 in 10.0 mi SW 4.6 mph - N/A   Clear
4:35 PM 69.8 °F - 39.2 °F 33% 30.20 in 10.0 mi WSW 5.8 mph - N/A   Clear
4:55 PM 68.0 °F - 39.2 °F 35% 30.20 in 10.0 mi SW 4.6 mph - N/A   Clear
5:15 PM 68.0 °F - 39.2 °F 35% 30.20 in 10.0 mi WSW 3.5 mph - N/A   Clear
5:55 PM 62.6 °F - 37.4 °F 39% 30.21 in 10.0 mi SSW 4.6 mph - N/A   Clear
6:15 PM 59.0 °F - 37.4 °F 45% 30.22 in 10.0 mi SSW 3.5 mph - N/A   Clear
6:35 PM 57.2 °F - 39.2 °F 51% 30.23 in 10.0 mi SSW 4.6 mph - N/A   Clear
6:55 PM 53.6 °F - 39.2 °F 58% 30.23 in 10.0 mi SSW 4.6 mph - N/A   Clear
7:15 PM 53.6 °F - 39.2 °F 58% 30.23 in 10.0 mi SSW 4.6 mph - N/A   Clear
7:35 PM 53.6 °F - 39.2 °F 58% 30.23 in 10.0 mi SSW 5.8 mph - N/A   Clear
7:55 PM 51.8 °F - 37.4 °F 58% 30.23 in 10.0 mi SSW 6.9 mph - N/A   Clear
8:15 PM 55.4 °F - 37.4 °F 51% 30.23 in 10.0 mi SSW 6.9 mph - N/A   Clear
8:35 PM 55.4 °F - 37.4 °F 51% 30.23 in 10.0 mi SSW 9.2 mph - N/A   Clear
8:55 PM 57.2 °F - 35.6 °F 44% 30.23 in 10.0 mi SSW 9.2 mph - N/A   Clear
9:15 PM 59.0 °F - 35.6 °F 42% 30.23 in 10.0 mi SSW 9.2 mph - N/A   Clear
9:35 PM 59.0 °F - 35.6 °F 42% 30.24 in 10.0 mi SSW 11.5 mph - N/A   Clear
9:55 PM 59.0 °F - 35.6 °F 42% 30.24 in 10.0 mi SW 11.5 mph - N/A   Clear
10:35 PM 57.2 °F - 35.6 °F 44% 30.24 in 10.0 mi SW 9.2 mph - N/A   Clear
11:15 PM 55.4 °F - 35.6 °F 47% 30.24 in 10.0 mi SW 9.2 mph - N/A   Clear
11:35 PM 55.4 °F - 35.6 °F 47% 30.25 in 10.0 mi SW 6.9 mph - N/A   Clear
11:55 PM 55.4 °F - 35.6 °F 47% 30.25 in 10.0 mi SW 8.1 mph - N/A   Clear